Wind_Speed
40 42 42 42 44 45 45 46 48 48 48 47 47 46 45 45 45 44 44 43 42 41 40 39 39 39 39 39 39 39 40 40 41 40 40 41 41 43 44 44 45 46 47
40 40 40 41 43 45 44 45 46 47 47 46 47 47 45 44 44 43 43 43 42 40 39 39 39 39 40 40 39 39 40 40 41 41 40 41 41 42 44 44 46 46 47
40 40 39 40 43 45 45 44 45 47 47 46 47 46 45 44 43 42 43 42 41 40 40 40 40 40 39 39 39 39 39 40 40 40 40 40 41 42 43 45 46 47 47
40 39 41 42 42 44 45 45 46 48 48 47 46 46 45 44 43 43 42 41 40 40 40 40 40 39 38 38 38 38 38 38 39 39 39 40 41 43 44 45 46 46 47
42 40 40 42 43 43 45 45 45 47 48 48 46 46 45 43 43 42 42 41 41 40 40 41 40 39 38 38 38 38 38 38 38 39 40 40 41 43 44 45 45 46 47
42 41 42 42 43 44 46 47 46 46 46 46 45 45 44 42 41 42 42 41 40 40 40 40 39 39 38 38 38 38 38 38 39 39 40 40 41 43 44 44 44 45 46
41 42 43 43 44 44 45 47 48 46 44 46 45 44 44 43 43 43 42 42 41 40 40 40 39 38 39 38 38 38 39 39 40 40 40 41 42 43 44 43 44 45 47
42 42 43 44 45 46 46 46 47 48 46 46 46 45 43 43 42 42 42 41 40 40 39 39 38 37 37 37 38 38 39 39 40 41 42 42 42 43 43 43 44 45 46
42 42 43 44 45 47 47 46 45 46 47 47 47 46 44 42 41 41 41 41 41 40 39 38 37 36 37 37 38 38 39 39 40 40 41 42 42 42 42 42 43 44 45
41 42 43 43 45 46 45 44 44 45 46 45 46 46 44 42 41 41 41 41 40 39 38 37 36 36 36 37 37 37 38 39 39 40 40 41 41 42 41 42 43 44 45
41 42 42 43 45 45 44 43 43 44 45 44 44 44 43 41 41 41 40 40 39 39 38 37 37 37 37 37 37 37 38 38 39 39 39 39 40 40 40 41 42 43 44
39 41 42 43 44 44 43 44 45 45 45 45 44 43 43 42 40 41 40 39 39 38 37 36 36 36 37 37 37 37 37 38 38 38 38 38 38 38 39 40 41 42 42
37 39 41 43 43 43 43 43 44 44 45 44 43 43 43 42 41 41 41 39 38 38 37 36 35 35 36 36 36 36 37 37 36 36 37 37 37 37 38 39 41 41 42
36 38 40 42 43 43 43 43 44 44 44 44 43 42 43 42 42 42 41 40 38 37 36 36 35 34 35 35 35 35 35 35 34 35 35 36 36 36 37 38 39 39 41
34 36 38 40 41 43 44 44 44 43 43 43 44 44 43 42 42 41 41 40 37 36 36 36 35 35 35 34 34 34 34 34 34 34 34 34 35 35 36 37 38 38 39
31 32 35 37 39 41 43 44 44 43 43 43 43 43 42 41 42 41 40 39 38 37 36 36 35 35 35 34 34 34 34 34 33 32 32 33 34 34 34 36 37 37 37
32 32 33 35 36 39 41 42 42 43 43 43 44 43 43 41 40 39 39 39 38 38 37 36 35 34 34 34 34 33 32 31 30 30 31 32 32 33 33 34 35 35 36
33 33 33 33 35 37 39 41 42 42 43 43 43 42 41 40 39 39 39 39 38 37 37 35 34 34 34 33 32 31 30 30 29 30 31 31 31 31 32 32 32 33 34
33 33 33 33 34 36 37 38 40 42 42 43 43 41 40 40 39 38 38 38 37 36 35 35 34 33 32 31 30 29 28 28 28 29 30 30 30 30 30 30 31 32 33
31 32 32 33 33 34 36 36 37 39 40 41 41 40 39 39 39 38 37 37 36 35 34 33 33 32 30 29 29 28 28 27 28 28 29 29 29 30 30 29 30 31 31
29 30 31 32 32 32 33 34 35 36 38 39 39 39 39 39 38 37 37 36 36 34 32 32 31 31 30 29 28 28 27 27 28 27 27 28 28 28 28 28 28 28 29
28 29 30 31 31 32 31 32 34 35 35 37 38 39 39 38 38 37 36 35 35 33 32 31 30 30 29 28 28 28 27 26 26 26 26 27 27 26 26 25 26 27 28
27 28 29 31 32 31 31 31 33 34 35 34 35 36 37 37 36 35 35 34 33 32 31 30 28 27 26 26 27 26 25 24 24 24 25 25 25 24 24 24 24 25 26
26 27 29 30 32 32 31 31 32 34 35 34 34 34 34 35 35 34 33 32 31 30 29 28 26 25 24 24 24 22 22 22 23 23 23 22 22 22 22 22 23 23 24
25 26 27 29 31 31 31 30 31 33 34 34 34 33 32 32 33 32 32 31 30 29 28 27 26 24 24 23 21 21 21 21 21 21 21 20 19 20 20 21 21 22 23
25 25 26 27 28 29 30 30 30 31 32 34 33 32 32 32 32 31 31 31 30 29 27 26 25 24 23 22 21 20 19 19 19 19 19 18 18 19 19 19 20 21 21
Wind_Direction
228 228 228 229 228 227 229 229 229 229 230 231 231 232 234 235 236 237 240 241 243 247 249 251 253 256 259 262 266 270 273 277 280 282 284 287 291 294 298 301 303 304 307
228 228 228 229 229 228 230 229 229 228 229 231 231 232 233 236 237 239 241 243 244 246 249 252 253 256 259 263 267 270 273 277 279 282 284 287 290 294 298 300 302 304 306
229 229 228 228 229 229 228 228 228 228 228 229 231 232 233 235 238 240 242 243 245 247 249 252 253 256 260 263 266 270 274 277 279 281 284 287 291 295 298 300 302 304 306
230 231 230 230 230 229 227 227 227 227 227 229 231 233 234 237 239 240 241 243 245 247 249 251 254 256 259 263 266 270 274 277 279 282 285 288 291 294 297 299 302 304 306
231 232 231 231 230 228 227 226 226 227 227 229 232 233 233 235 238 240 242 243 245 248 249 252 254 257 259 263 267 270 273 277 279 282 285 289 291 294 297 299 301 303 306
233 233 232 231 230 228 227 226 226 226 227 229 231 233 234 236 239 240 241 243 246 249 251 252 254 257 260 263 267 270 273 277 279 282 286 289 292 294 297 299 301 303 306
234 234 233 232 230 230 228 228 227 227 228 229 231 233 235 237 239 240 241 244 246 249 251 253 254 257 260 263 266 270 274 277 280 283 286 288 291 293 296 299 301 304 307
235 234 233 231 230 230 229 227 227 228 231 231 231 232 235 237 239 240 241 243 246 249 251 252 254 256 259 262 267 270 274 277 280 283 285 287 290 293 296 299 302 305 307
234 232 232 231 230 229 228 227 228 230 231 232 233 235 236 238 239 240 242 244 247 249 251 252 254 256 260 263 267 270 273 275 279 282 284 288 290 293 296 300 303 306 307
233 231 231 229 227 227 227 228 228 228 229 232 233 234 235 237 239 242 243 245 246 248 250 252 255 258 261 263 267 270 273 275 278 281 284 287 290 293 296 300 303 305 307
234 232 230 227 226 226 228 230 229 228 229 231 233 233 234 236 239 242 244 246 247 249 250 252 255 258 261 263 266 269 273 276 279 282 285 288 291 294 297 300 302 305 307
234 233 231 229 228 228 229 231 231 230 231 232 233 235 237 238 240 242 243 245 247 249 250 252 255 259 261 263 265 269 272 276 279 282 285 288 291 294 298 301 303 305 307
234 232 232 231 231 230 231 230 231 231 233 233 233 237 238 239 241 240 242 243 246 248 251 253 255 259 261 263 266 269 272 276 279 282 285 288 290 294 297 301 305 307 308
235 234 234 233 233 233 233 232 232 233 234 234 236 238 239 240 241 241 241 242 245 248 250 252 255 259 261 264 267 270 273 276 279 282 285 288 291 293 296 300 304 306 308
235 235 235 235 233 230 231 233 232 234 236 236 237 238 239 240 240 241 242 243 246 247 250 252 255 259 262 264 266 269 273 276 277 280 284 287 290 293 297 301 304 306 309
235 234 233 232 233 231 230 232 233 233 234 235 236 237 238 238 238 240 241 242 243 246 249 252 256 258 261 263 266 269 271 274 276 279 284 287 292 295 298 301 304 307 309
235 234 234 234 233 232 230 231 232 233 233 234 235 236 238 239 240 240 240 239 242 246 249 252 254 257 261 264 266 268 269 271 274 280 285 289 292 295 298 302 304 306 309
236 234 234 234 234 233 232 232 232 232 231 231 233 234 236 238 240 240 240 240 242 244 247 250 253 256 260 263 263 264 266 270 275 281 285 289 293 295 298 301 304 307 310
236 235 236 235 235 235 233 232 232 231 230 230 231 232 233 235 237 239 240 240 242 243 245 248 251 255 258 258 260 262 266 270 276 280 285 290 292 295 298 301 305 307 310
236 236 236 235 235 235 233 232 231 230 229 229 229 231 232 234 235 238 240 240 241 242 245 247 249 250 253 256 258 261 266 271 277 281 285 290 293 295 298 301 304 307 311
238 237 236 235 234 234 235 235 232 231 231 230 229 230 233 234 236 238 239 240 239 239 241 244 245 247 251 254 257 262 266 271 277 279 284 290 294 296 298 301 304 308 312
240 238 236 235 233 232 234 234 232 230 231 230 229 230 232 234 235 237 238 237 236 237 239 240 242 246 250 252 256 260 265 270 274 279 283 288 293 297 298 300 304 308 314
242 240 238 235 233 232 232 231 228 229 228 228 229 231 232 233 234 235 234 233 234 235 236 239 242 244 247 250 254 258 262 267 272 279 284 288 293 297 299 301 305 309 315
242 241 238 235 232 232 231 230 228 227 226 227 228 229 230 230 229 228 227 228 230 231 233 237 239 242 244 247 251 255 260 266 273 279 283 287 293 298 300 301 305 310 316
241 240 239 236 233 231 230 230 229 227 226 226 226 227 226 224 223 222 222 223 226 228 231 236 239 240 241 244 249 255 261 268 273 278 282 287 291 296 301 305 308 312 316
241 240 238 236 233 230 229 228 227 226 225 224 224 223 222 221 220 220 220 221 224 227 230 235 237 237 238 241 247 254 259 266 272 277 281 283 289 297 302 307 311 314 317
Height
5580 5585 5591 5597 5602 5609 5615 5621 5628 5635 5642 5649 5656 5662 5667 5672 5678 5683 5688 5692 5696 5699 5702 5705 5707 5709 5710 5711 5712 5712 5711 5710 5709 5708 5705 5702 5699 5695 5691 5686 5681 5675 5670
5572 5578 5583 5588 5594 5600 5606 5613 5619 5626 5634 5640 5646 5652 5658 5664 5669 5674 5679 5683 5687 5690 5693 5696 5698 5700 5701 5702 5703 5703 5702 5701 5700 5698 5696 5693 5690 5686 5682 5677 5672 5666 5660
5564 5570 5575 5580 5585 5591 5598 5604 5610 5617 5624 5630 5637 5643 5649 5655 5660 5665 5670 5674 5678 5681 5684 5687 5689 5691 5692 5693 5694 5693 5693 5692 5690 5689 5687 5684 5681 5677 5673 5668 5662 5657 5651
5556 5561 5566 5572 5577 5582 5588 5594 5601 5608 5615 5621 5627 5634 5640 5646 5651 5656 5660 5664 5668 5672 5675 5677 5680 5682 5683 5684 5684 5684 5683 5682 5681 5679 5677 5675 5672 5668 5663 5659 5653 5648 5642
5548 5552 5557 5563 5568 5573 5579 5585 5592 5599 5606 5612 5618 5625 5630 5636 5642 5646 5651 5655 5659 5662 5665 5668 5671 5672 5674 5675 5675 5675 5674 5673 5672 5670 5668 5665 5662 5658 5654 5649 5644 5639 5633
5539 5543 5548 5553 5559 5564 5570 5576 5583 5590 5596 5603 5609 5615 5621 5627 5632 5637 5641 5645 5649 5653 5656 5659 5661 5663 5664 5665 5666 5666 5665 5664 5663 5661 5659 5656 5653 5649 5645 5640 5635 5630 5624
5529 5534 5539 5544 5550 5555 5561 5567 5574 5580 5586 5593 5600 5606 5612 5618 5623 5627 5631 5636 5640 5643 5646 5649 5651 5653 5654 5656 5656 5656 5656 5655 5653 5652 5649 5646 5643 5640 5635 5631 5625 5620 5614
5520 5524 5529 5534 5540 5546 5552 5558 5564 5571 5577 5584 5590 5596 5602 5608 5612 5617 5621 5626 5630 5633 5636 5639 5642 5643 5645 5646 5647 5647 5646 5645 5644 5642 5640 5637 5634 5630 5626 5621 5616 5611 5604
5510 5515 5519 5525 5531 5537 5543 5550 5556 5562 5568 5575 5581 5587 5593 5598 5603 5607 5611 5616 5620 5624 5627 5629 5632 5634 5635 5636 5637 5637 5637 5636 5634 5632 5630 5627 5624 5620 5616 5612 5607 5601 5595
5501 5506 5511 5516 5522 5529 5535 5541 5547 5553 5559 5565 5571 5577 5583 5589 5593 5597 5602 5606 5610 5614 5617 5620 5622 5624 5625 5626 5627 5627 5627 5626 5624 5623 5620 5618 5614 5611 5607 5602 5597 5592 5585
5492 5497 5502 5507 5513 5520 5526 5531 5537 5543 5550 5556 5562 5568 5573 5579 5583 5588 5592 5596 5601 5604 5607 5610 5613 5614 5615 5616 5617 5617 5617 5616 5614 5613 5611 5608 5605 5601 5598 5593 5588 5582 5576
5482 5488 5493 5498 5504 5510 5516 5522 5528 5534 5540 5547 5552 5558 5563 5569 5574 5578 5583 5587 5591 5594 5598 5601 5603 5605 5606 5606 5607 5607 5606 5605 5604 5603 5601 5599 5596 5592 5588 5584 5578 5573 5567
5473 5478 5483 5489 5494 5501 5507 5512 5518 5524 5531 5537 5543 5549 5554 5559 5564 5568 5573 5577 5580 5584 5588 5591 5593 5595 5595 5596 5597 5597 5597 5596 5595 5594 5592 5589 5586 5583 5579 5575 5570 5564 5558
5464 5469 5473 5479 5484 5491 5497 5503 5509 5515 5521 5527 5533 5539 5544 5549 5554 5558 5562 5567 5570 5574 5577 5580 5583 5585 5586 5587 5588 5587 5587 5587 5586 5584 5582 5580 5577 5574 5570 5566 5561 5556 5550
5455 5460 5464 5469 5474 5480 5486 5492 5499 5506 5511 5518 5523 5529 5534 5539 5544 5548 5552 5557 5561 5564 5567 5570 5573 5575 5576 5578 5578 5578 5578 5577 5576 5575 5573 5570 5568 5565 5561 5557 5553 5547 5542
5447 5451 5455 5460 5465 5470 5476 5483 5488 5495 5501 5506 5512 5518 5524 5529 5534 5538 5543 5547 5551 5554 5557 5561 5564 5566 5567 5568 5569 5569 5569 5568 5567 5566 5564 5562 5559 5556 5553 5549 5544 5539 5534
5438 5442 5446 5450 5455 5460 5465 5472 5478 5484 5490 5496 5501 5507 5513 5518 5523 5528 5532 5537 5541 5544 5548 5551 5554 5556 5557 5558 5559 5559 5559 5559 5558 5557 5555 5553 5550 5547 5544 5540 5536 5531 5526
5429 5433 5437 5441 5446 5450 5456 5461 5467 5473 5479 5485 5490 5496 5502 5507 5512 5517 5522 5526 5530 5534 5538 5541 5544 5546 5548 5548 5549 5550 5550 5550 5549 5548 5547 5544 5542 5539 5536 5532 5528 5523 5518
5420 5424 5428 5432 5436 5441 5446 5451 5457 5463 5469 5475 5481 5486 5491 5497 5502 5507 5511 5516 5520 5525 5528 5531 5534 5536 5538 5539 5540 5541 5541 5541 5541 5540 5538 5536 5534 5531 5528 5524 5520 5516 5511
5411 5415 5419 5423 5427 5431 5436 5441 5446 5452 5458 5464 5470 5476 5481 5486 5492 5497 5501 5506 5510 5514 5517 5521 5524 5526 5528 5530 5531 5532 5533 5533 5533 5532 5530 5528 5526 5523 5520 5517 5513 5509 5504
5402 5406 5410 5414 5418 5423 5427 5432 5436 5442 5448 5454 5460 5466 5471 5476 5482 5487 5491 5496 5500 5504 5508 5511 5514 5516 5519 5520 5522 5523 5524 5525 5524 5524 5523 5521 5519 5516 5513 5510 5506 5502 5498
5394 5397 5401 5405 5409 5414 5418 5422 5427 5433 5438 5444 5450 5455 5461 5466 5471 5477 5481 5486 5490 5494 5498 5502 5505 5507 5509 5512 5514 5515 5516 5517 5517 5516 5515 5513 5511 5509 5506 5503 5500 5496 5492
5386 5389 5392 5396 5401 5405 5409 5414 5419 5424 5429 5435 5440 5445 5451 5456 5462 5467 5472 5476 5480 5485 5489 5492 5495 5498 5501 5503 5505 5507 5508 5509 5509 5508 5507 5506 5504 5502 5500 5497 5494 5491 5487
5378 5381 5384 5388 5392 5396 5401 5405 5410 5415 5420 5425 5431 5436 5441 5447 5452 5458 5463 5467 5472 5476 5480 5484 5487 5490 5492 5495 5497 5499 5500 5501 5501 5501 5500 5499 5498 5496 5494 5491 5489 5486 5482
5369 5372 5375 5379 5383 5387 5392 5396 5401 5406 5411 5417 5422 5428 5433 5439 5444 5449 5455 5460 5464 5469 5472 5476 5479 5482 5485 5488 5490 5491 5493 5493 5494 5494 5493 5493 5492 5490 5488 5486 5483 5480 5477
5361 5364 5367 5371 5375 5379 5383 5388 5393 5398 5403 5408 5414 5420 5426 5431 5437 5442 5447 5452 5457 5461 5465 5468 5472 5475 5479 5481 5483 5485 5486 5487 5487 5487 5487 5487 5486 5485 5483 5481 5478 5476 5473